Location: Derby
(52.9213°N, 1.4761°W)
Time: 02:24:07
(UTC+01:00)

Vanguard 2 Rocket - Pass Details

Date: 24 May 2025
Orbit: 554 x 3293 km, 32.9° (Epoch: 12 June)

Event Time Altitude Azimuth Distance (km) Brightness Sun altitude
Rises 22:31:52 0° 225° (SW) 7,240 11.4 -9.2°
Reaches altitude 10° 22:37:41 10° 216° (SW) 6,230 10.9 -9.7°
Maximum altitude 22:53:02 30° 165° (SSE) 4,261 9.8 -10.9°
Drops below altitude 10° 23:04:58 10° 112° (ESE) 4,845 10.1 -11.8°
Sets 23:08:44 0° 102° (ESE) 5,480 10.5 -12.1°
